Find Local Weather

World > North America > United States > Illinois

Barrington, Illinois Regional Weather

Lat: 42.15N, Lon: 88.13W
Wx Zone: ILZ006
Feedback
Expires:201809250200;;161194
ASUS43 KLOT 250109
RWRIL 

ILLINOIS REGIONAL WEATHER ROUNDUP
NATIONAL WEATHER SERVICE CHICAGO/ROMEOVILLE IL
800 PM CDT MON SEP 24 2018

NOTE: "FAIR" INDICATES FEW OR NO CLOUDS BELOW 12,000 FEET WITH NO
SIGNIFICANT WEATHER AND/OR OBSTRUCTIONS TO VISIBILITY.

* THESE STATIONS ARE NOT UNDER NWS QUALITY CONTROL. THEY ALSO MAY NOT
  REPORT WEATHER SUCH AS PRECIPITATION OR FOG.


ILZ005-006-012>014-019>023-250200-
NORTHEAST ILLINOIS
  
CITY           SKY/WX    TMP DP  RH WIND       PRES   REMARKS
CHICAGO-OHARE  CLOUDY    70  64  81 E6        29.92S                  
CHICAGO-MIDWAY CLOUDY    71  64  78 E6        29.92S                  
AURORA         CLOUDY    68  65  90 E3        29.92S                  
LANSING*       CLOUDY    71  65  81 SE3       29.93R                  
JOLIET*        CLOUDY    70  67  90 CALM      29.92S                  
WAUKEGAN       CLOUDY    67  64  90 SE5       29.92S                  
DUPAGE AIRPORT CLOUDY    68  63  84 CALM      29.92S                  
KANKAKEE*      CLOUDY    72  65  81 S6        29.94R                  
WHEELING       CLOUDY    69  63  81 E3        29.93S                  
MORRIS*        CLOUDY    69  65  87 CALM      29.91S                  
ROMEOVILLE*    CLOUDY    69  64  85 CALM      29.92S                  
NORTHERLY ISL    N/A     68  65  90 NE2         N/A                   
$$


SKY/WX - Weather  TMP - Temperature  DP - Dew Point  RH - Relative Humidity
WIND - Wind Direction/Speed PRES - Barometric Pressure